Weather in Kolpni

Russia / Oryol Oblast     52°13′32″N   37°02′10″E
temp.,
°C
wind,
m/s
gust,
m/s
humid.,
%
clouds,
%
prec.,
mm/h
press.,
hPa
HPBL,
m
1 august, sun
sun100:00+19nne117113 0.0 101111
03:00+18se117496 0.0 101211
06:00+19s117545 0.0 101211
09:00+25s2354100 0.0 1012395
12:00+30ssw463820 0.0 10122092
15:00+31wsw573211 0.0 10112783
18:00+30wnw34381 0.0 1010618
21:00+24se224846 0.0 101112
2 august, mon
mon200:00+24sse385053 0.0 1011173
03:00+21ssw336126 0.0 101032
06:00+20sse35693 0.3 101074
09:00+28s594664 0.3 1010479
12:00+32ssw893262 0.0 10092632
15:00+34ssw68275 0.0 10073347
18:00+32sw3636100 0.0 1005404
21:00+19w71591100 4.9 1009424
3 august, tue
tue300:00+19ssw3890100 0.4 1007173
03:00+18sw499194 0.4 1008318
06:00+18sw489555 0.7 1008349
09:00+20w688048 0.7 1010762
12:00+21w566785 0.1 10111074
15:00+22wnw4655100 0.1 10111410
18:00+21w595894 0.0 1011417
21:00+18nw49700 0.0 1013254
4 august, wed
wed400:00+15nw33850 0.0 101439
03:00+14wnw348244 0.0 101655
06:00+15wnw237763 0.0 101655
09:00+21w34543 0.0 1017711
12:00+24w453989 0.0 10172528
15:00+22nw4543100 0.0 10171130
18:00+21nw364999 0.0 1017389
21:00+17nw22596 0.0 101813
5 august, thu
thu500:00+16nw116495 0.0 101811
03:00+14sw226529 0.0 101811
06:00+15s2264100 0.0 101911
09:00+21sse224797 0.0 1018350
12:00+25ssw3436100 0.0 10181911
15:00+21wsw4652100 0.0 1018301
18:00+22sw2250100 0.0 1017275
21:00+19sse2257100 0.0 101713